Ironwood, MI

5:10 AM CDT on April 19, 2018 (GMT -0500)
Gogebic-Iron County

Weather History for KIWD - December, 2011

Change the Weather History Date:

Sunday, December 11, 2011

  Actual Average Record
Temperature  
Mean Temperature 32 °F -  
Max Temperature 46 °F 28 °F 46 °F (1998)
Min Temperature 19 °F 17 °F -9 °F (2013)
Degree Days  
Heating Degree Days 32    
Moisture  
Dew Point 23 °F    
Average Humidity 66    
Maximum Humidity 93    
Minimum Humidity 39    
Precipitation  
Precipitation 0.00 in - - ()
Sea Level Pressure  
Sea Level Pressure 29.96 in    
Wind  
Wind Speed 12 mph (SSW)    
Max Wind Speed 17 mph    
Max Gust Speed 28 mph    
Visibility 10 miles    
Events      
Averages and records for this station are not official NWS values.
T = Trace of Precipitation, MM = Missing Value Source: NWS Daily Summary

Daily Weather History Graph

Daily Weather History Graph

Search for Another Location

Airport or City:

Astronomy

Dec. 11, 2011 Rise Set
Actual Time 7:34 AM CST 4:13 PM CST
Civil Twilight 6:59 AM CST 4:48 PM CST
Nautical Twilight 6:21 AM CST 5:26 PM CST
Astronomical Twilight 5:44 AM CST 6:02 PM CST
Moon 5:23 PM CST (12/11) 8:22 AM CST (12/11)
Length of Visible Light 9h 48m
Length of Day
8h 38m
Full, 99% of the Moon is Illuminated
Dec 11
Full
Dec 17
Last Quarter
Dec 24
New
Jan 1
First Quarter
Jan 9
Full

Hourly Weather History & Observations

Time (CST) Temp. Windchill Dew Point Humidity Pressure Visibility Wind Dir Wind Speed Gust Speed Precip Events Conditions
12:15 AM 19.4 °F 11.5 °F 15.8 °F 86% 30.04 in 10.0 mi South 5.8 mph - N/A   Partly Cloudy
12:35 AM 19.4 °F 9.5 °F 15.8 °F 86% 30.03 in 10.0 mi South 8.1 mph - N/A   Partly Cloudy
12:55 AM 19.4 °F 8.6 °F 17.6 °F 93% 30.02 in 9.0 mi South 9.2 mph - N/A   Partly Cloudy
1:15 AM 21.2 °F 10.9 °F 17.6 °F 86% 30.01 in 10.0 mi South 9.2 mph - N/A   Clear
1:35 AM 23.0 °F 13.1 °F 17.6 °F 80% 30.00 in 10.0 mi SSW 9.2 mph 19.6 mph N/A   Partly Cloudy
3:15 AM 24.8 °F 14.0 °F 19.4 °F 80% 29.96 in 10.0 mi SW 11.5 mph 17.3 mph N/A   Partly Cloudy
3:35 AM 24.8 °F 16.9 °F 19.4 °F 80% 29.96 in 10.0 mi SSW 6.9 mph - N/A   Partly Cloudy
3:55 AM 24.8 °F 16.9 °F 19.4 °F 80% 29.95 in 10.0 mi SW 6.9 mph 16.1 mph N/A   Partly Cloudy
4:15 AM 24.8 °F 14.6 °F 19.4 °F 80% 29.95 in 10.0 mi South 10.4 mph - N/A   Partly Cloudy
4:35 AM 24.8 °F 14.0 °F 19.4 °F 80% 29.94 in 10.0 mi SSW 11.5 mph 16.1 mph N/A   Partly Cloudy
4:55 AM 26.6 °F 15.7 °F 21.2 °F 80% 29.94 in 10.0 mi SSW 12.7 mph 19.6 mph N/A   Partly Cloudy
5:15 AM 26.6 °F 15.2 °F 21.2 °F 80% 29.94 in 10.0 mi SSW 13.8 mph 20.7 mph N/A   Partly Cloudy
5:35 AM 26.6 °F 16.2 °F 21.2 °F 80% 29.93 in 10.0 mi SSW 11.5 mph 20.7 mph N/A   Clear
6:15 AM 26.6 °F 15.7 °F 21.2 °F 80% 29.92 in 10.0 mi SSW 12.7 mph 23.0 mph N/A   Partly Cloudy
6:35 AM 26.6 °F 13.8 °F 19.4 °F 74% 29.92 in 10.0 mi SSW 17.3 mph 24.2 mph N/A   Partly Cloudy
6:55 AM 28.4 °F 17.0 °F 21.2 °F 74% 29.92 in 10.0 mi SSW 15.0 mph 24.2 mph N/A   Partly Cloudy
7:15 AM 28.4 °F 17.0 °F 21.2 °F 74% 29.92 in 10.0 mi SSW 15.0 mph 21.9 mph N/A   Partly Cloudy
7:35 AM 28.4 °F 17.0 °F 21.2 °F 74% 29.92 in 10.0 mi SSW 15.0 mph 23.0 mph N/A   Partly Cloudy
7:55 AM 28.4 °F 17.5 °F 21.2 °F 74% 29.92 in 10.0 mi SSW 13.8 mph 20.7 mph N/A   Scattered Clouds
8:15 AM 30.2 °F 20.2 °F 21.2 °F 69% 29.93 in 10.0 mi SSW 12.7 mph - N/A   Scattered Clouds
8:35 AM 30.2 °F 19.3 °F 21.2 °F 69% 29.93 in 10.0 mi SSW 15.0 mph 21.9 mph N/A   Scattered Clouds
8:55 AM 32.0 °F 21.2 °F 21.2 °F 64% 29.92 in 10.0 mi SSW 16.1 mph 23.0 mph N/A   Mostly Cloudy
9:15 AM 33.8 °F 23.2 °F 21.2 °F 60% 29.93 in 10.0 mi SSW 17.3 mph 23.0 mph N/A   Mostly Cloudy
10:35 AM 39.2 °F 30.8 °F 21.2 °F 49% 29.93 in 10.0 mi SW 15.0 mph - N/A   Mostly Cloudy
11:15 AM 42.8 °F 35.4 °F 21.2 °F 42% 29.92 in 10.0 mi SW 15.0 mph 23.0 mph N/A   Mostly Cloudy
11:35 AM 42.8 °F 35.4 °F 21.2 °F 42% 29.91 in 10.0 mi SW 15.0 mph 23.0 mph N/A   Mostly Cloudy
11:55 AM 44.6 °F 37.8 °F 21.2 °F 39% 29.91 in 10.0 mi SW 15.0 mph 23.0 mph N/A   Mostly Cloudy
12:15 PM 44.6 °F 37.4 °F 21.2 °F 39% 29.91 in 10.0 mi SSW 16.1 mph - N/A   Mostly Cloudy
12:35 PM 44.6 °F 37.4 °F 21.2 °F 39% 29.90 in 10.0 mi SW 16.1 mph 20.7 mph N/A   Mostly Cloudy
12:55 PM 44.6 °F 37.4 °F 21.2 °F 39% 29.89 in 10.0 mi SSW 16.1 mph 23.0 mph N/A   Mostly Cloudy
1:15 PM 46.4 °F 40.1 °F 23.0 °F 40% 29.89 in 10.0 mi SW 15.0 mph 21.9 mph N/A   Mostly Cloudy
1:35 PM 46.4 °F 39.5 °F 23.0 °F 40% 29.89 in 10.0 mi SSW 17.3 mph 24.2 mph N/A   Mostly Cloudy
1:55 PM 46.4 °F 40.1 °F 23.0 °F 40% 29.89 in 10.0 mi SSW 15.0 mph 20.7 mph N/A   Mostly Cloudy
2:15 PM 46.4 °F 39.8 °F 23.0 °F 40% 29.89 in 10.0 mi SSW 16.1 mph 20.7 mph N/A   Mostly Cloudy
2:35 PM 46.4 °F 39.5 °F 23.0 °F 40% 29.89 in 10.0 mi SSW 17.3 mph 27.6 mph N/A   Mostly Cloudy
2:55 PM 46.4 °F 40.7 °F 23.0 °F 40% 29.90 in 10.0 mi SSW 12.7 mph 23.0 mph N/A   Mostly Cloudy
3:15 PM 44.6 °F 38.1 °F 23.0 °F 43% 29.90 in 10.0 mi SSW 13.8 mph 21.9 mph N/A   Mostly Cloudy
3:35 PM 44.6 °F 38.4 °F 24.8 °F 46% 29.91 in 10.0 mi SSW 12.7 mph 20.7 mph N/A   Mostly Cloudy
3:55 PM 42.8 °F 36.6 °F 24.8 °F 49% 29.92 in 10.0 mi SSW 11.5 mph 19.6 mph N/A   Mostly Cloudy
4:15 PM 42.8 °F 35.4 °F 24.8 °F 49% 29.93 in 10.0 mi SSW 15.0 mph 21.9 mph N/A   Mostly Cloudy
4:35 PM 41.0 °F 33.1 °F 24.8 °F 53% 29.93 in 10.0 mi SSW 15.0 mph 20.7 mph N/A   Scattered Clouds
4:56 PM 39.2 °F 31.6 °F 24.8 °F 56% 29.94 in 10.0 mi SSW 12.7 mph 20.7 mph N/A   Scattered Clouds
5:55 PM 37.4 °F 29.3 °F 26.6 °F 65% 29.96 in 10.0 mi SSW 12.7 mph 18.4 mph N/A   Partly Cloudy
6:15 PM 37.4 °F 28.9 °F 26.6 °F 65% 29.96 in 10.0 mi SSW 13.8 mph 20.7 mph N/A   Partly Cloudy
6:35 PM 37.4 °F 28.9 °F 24.8 °F 60% 29.97 in 10.0 mi SSW 13.8 mph 18.4 mph N/A   Partly Cloudy
6:55 PM 35.6 °F 27.5 °F 24.8 °F 65% 29.98 in 10.0 mi SSW 11.5 mph - N/A   Clear
7:15 PM 35.6 °F 27.5 °F 26.6 °F 70% 29.99 in 10.0 mi SW 11.5 mph 17.3 mph N/A   Partly Cloudy
7:35 PM 35.6 °F 27.5 °F 24.8 °F 65% 30.00 in 10.0 mi SSW 11.5 mph 23.0 mph N/A   Partly Cloudy
7:55 PM 33.8 °F 23.2 °F 24.8 °F 70% 30.01 in 10.0 mi SSW 17.3 mph 21.9 mph N/A   Partly Cloudy
8:15 PM 32.0 °F 23.0 °F 26.6 °F 80% 30.02 in 10.0 mi SSW 11.5 mph 20.7 mph N/A   Partly Cloudy
8:35 PM 32.0 °F 23.0 °F 24.8 °F 75% 30.03 in 10.0 mi SW 11.5 mph - N/A   Clear
9:15 PM 33.8 °F 25.3 °F 28.4 °F 81% 30.05 in 10.0 mi SW 11.5 mph 17.3 mph N/A   Overcast
9:35 PM 33.8 °F 25.3 °F 28.4 °F 81% 30.06 in 9.0 mi SW 11.5 mph - N/A   Overcast
10:15 PM 33.8 °F 24.8 °F 28.4 °F 81% 30.07 in 7.0 mi SW 12.7 mph 18.4 mph N/A   Overcast
10:35 PM 33.8 °F 24.8 °F 28.4 °F 81% 30.08 in 7.0 mi SW 12.7 mph - N/A   Overcast
11:15 PM 33.8 °F 23.5 °F 30.2 °F 87% 30.09 in 6.0 mi SW 16.1 mph 20.7 mph N/A   Overcast
11:35 PM 33.8 °F 24.8 °F 30.2 °F 87% 30.09 in 6.0 mi SW 12.7 mph 20.7 mph N/A   Overcast
11:56 PM 33.8 °F 27.0 °F 30.2 °F 87% 30.09 in 7.0 mi SW 8.1 mph - N/A   Overcast